Starlink 4252

operational
NORAD ID: 53057 Int'l Des: 2022-077 Owner: SPXS Country: US Constellation: starlink
LEOCIRCULARRETROGRADESSO

Starlink 4252について

説明を読み込み中...

リアルタイム位置

3D地球を読み込み中...

次回通過

高度履歴

Altitude vs Time

uPlot chart will show altitude changes over time

軌道要素

1 53057U 22077Q 25303.48724254 .00000221 00000-0 19557-4 0 9993
2 53057 97.6018 122.9553 0001777 85.1354 275.0076 15.05650177181394
Epoch: Oct 30, 2025 • Age: 17 hours

現在のステータス

高度 554.9 km
速度 7.58 km/s
衛星直下点 -11.45°S, 7.63°E
打ち上げ日 Jul 11, 2022
運用期間 3.3 years
タイプ internet

技術仕様

分類 Payload
質量 297.00 kg
乾燥質量 275.00 kg
総質量 297.00 kg
長さ 0.20 m
直径 2.80 m
スパン 9.00 m
形状 Box + pan
製造者 SPXS
バスタイプ Starlink
フェーズステータス In Orbit
所有者/国 SPXS/US

大規模コンステレーション

Loading constellations...